TimePST,TemperatureF,Dew PointF,Humidity,Sea Level PressureIn,VisibilityMPH,Wind Direction,Wind SpeedMPH,Gust SpeedMPH,PrecipitationIn,Events,Conditions,WindDirDegrees,DateUTC
12:13 AM,35.6,33.8,93,30.18,1.2,SSW,2.3,-,N/A,,Clear,200,2013-02-16 08:13:00
12:23 AM,35.6,35.6,100,30.18,2.5,SW,1.2,-,N/A,,Clear,220,2013-02-16 08:23:00
12:28 AM,35.6,35.6,100,30.18,1.8,SW,2.3,-,N/A,,Clear,220,2013-02-16 08:28:00
12:33 AM,35.6,35.6,100,30.19,2.0,WSW,2.3,-,N/A,,Clear,240,2013-02-16 08:33:00
12:38 AM,35.6,35.6,100,30.19,6.0,SW,2.3,-,N/A,,Clear,220,2013-02-16 08:38:00
12:58 AM,33.8,32.0,93,30.21,2.0,South,3.5,-,N/A,,Clear,180,2013-02-16 08:58:00
1:00 AM,32.0,32.0,100,30.19,1.5,South,3.5,-,N/A,,Partly Cloudy,190,2013-02-16 09:00:00
1:05 AM,32.0,32.0,100,30.18,0.8,South,4.6,-,N/A,,Mist,180,2013-02-16 09:05:00
1:10 AM,32.0,32.0,100,30.18,0.5,South,3.5,-,N/A,Fog,Light Freezing Fog,180,2013-02-16 09:10:00
1:15 AM,32.0,32.0,100,30.18,0.5,South,3.5,-,N/A,Fog,Fog,180,2013-02-16 09:15:00
1:20 AM,32.0,32.0,100,30.18,0.8,South,3.5,-,N/A,,Clear,170,2013-02-16 09:20:00
1:25 AM,33.8,32.0,93,30.18,1.0,South,2.3,-,N/A,,Clear,180,2013-02-16 09:25:00
1:30 AM,33.8,32.0,93,30.19,1.5,South,2.3,-,N/A,,Clear,190,2013-02-16 09:30:00
1:35 AM,33.8,33.8,100,30.19,1.2,South,2.3,-,N/A,,Clear,190,2013-02-16 09:35:00
1:40 AM,32.0,32.0,100,30.19,0.8,South,3.5,-,N/A,,Clear,180,2013-02-16 09:40:00
1:45 AM,32.0,32.0,100,30.19,1.0,South,2.3,-,N/A,,Clear,180,2013-02-16 09:45:00
1:50 AM,32.0,32.0,100,30.19,1.0,South,1.2,-,N/A,,Clear,190,2013-02-16 09:50:00
1:55 AM,32.0,32.0,100,30.18,0.5,South,2.3,-,N/A,Fog,Fog,170,2013-02-16 09:55:00
1:58 AM,32.0,32.0,100,30.20,0.5,SE,2.3,-,N/A,Fog,Fog,140,2013-02-16 09:58:00
2:03 AM,32.0,32.0,100,30.18,0.8,ENE,1.2,-,N/A,,Clear,70,2013-02-16 10:03:00
2:08 AM,32.0,32.0,100,30.18,3.0,Calm,Calm,-,N/A,,Clear,0,2013-02-16 10:08:00
2:58 AM,34.7,34.5,99,30.19,9.0,ESE,1.2,-,N/A,,Mostly Cloudy,120,2013-02-16 10:58:00
3:58 AM,34.2,34.0,99,30.20,10.0,South,3.5,-,N/A,,Overcast,190,2013-02-16 11:58:00
4:18 AM,41.0,41.0,100,30.17,10.0,SW,8.1,-,N/A,,Overcast,220,2013-02-16 12:18:00
4:58 AM,43.9,43.5,99,30.20,10.0,SSW,10.4,-,N/A,,Overcast,210,2013-02-16 12:58:00
5:58 AM,43.7,43.5,99,30.20,10.0,SSW,8.1,-,N/A,,Overcast,200,2013-02-16 13:58:00
6:58 AM,44.6,44.1,98,30.20,10.0,SSW,10.4,-,N/A,,Overcast,210,2013-02-16 14:58:00
7:58 AM,45.0,43.5,95,30.21,10.0,SSW,12.7,-,N/A,,Overcast,210,2013-02-16 15:58:00
8:43 AM,44.6,44.6,100,30.20,10.0,SW,10.4,-,N/A,,Overcast,220,2013-02-16 16:43:00
8:53 AM,46.4,44.6,93,30.20,10.0,SW,12.7,-,N/A,,Overcast,220,2013-02-16 16:53:00
8:58 AM,45.7,44.2,95,30.22,10.0,SW,12.7,-,N/A,,Overcast,220,2013-02-16 16:58:00
9:07 AM,46.4,44.6,93,30.21,10.0,SW,10.4,-,N/A,,Light Drizzle,230,2013-02-16 17:07:00
9:08 AM,46.4,44.6,93,30.21,10.0,SW,11.5,-,N/A,,Light Drizzle,230,2013-02-16 17:08:00
9:17 AM,46.4,44.6,93,30.21,10.0,SW,10.4,-,N/A,,Overcast,230,2013-02-16 17:17:00
9:22 AM,46.4,44.6,93,30.21,10.0,SW,11.5,-,N/A,,Overcast,220,2013-02-16 17:22:00
9:25 AM,46.4,44.6,93,30.21,10.0,SW,10.4,-,N/A,,Light Drizzle,220,2013-02-16 17:25:00
9:34 AM,44.6,44.6,100,30.21,10.0,SW,9.2,-,N/A,,Overcast,230,2013-02-16 17:34:00
9:48 AM,44.6,44.6,100,30.21,10.0,SW,8.1,-,N/A,,Mostly Cloudy,220,2013-02-16 17:48:00
9:53 AM,46.4,44.6,93,30.21,10.0,SW,8.1,-,N/A,,Mostly Cloudy,220,2013-02-16 17:53:00
9:58 AM,45.5,45.1,99,30.22,10.0,SW,9.2,-,0.00,,Overcast,220,2013-02-16 17:58:00
10:08 AM,46.4,44.6,93,30.20,10.0,SSW,10.4,-,N/A,,Overcast,210,2013-02-16 18:08:00
10:13 AM,46.4,44.6,93,30.20,10.0,SSW,10.4,-,N/A,,Overcast,210,2013-02-16 18:13:00
10:23 AM,46.4,44.6,93,30.20,10.0,SSW,12.7,-,N/A,,Overcast,210,2013-02-16 18:23:00
10:57 AM,46.4,44.6,93,30.20,10.0,SW,11.5,-,N/A,Rain,Light Rain,220,2013-02-16 18:57:00
10:58 AM,46.0,44.4,94,30.22,10.0,SW,11.5,-,N/A,Rain,Light Rain,220,2013-02-16 18:58:00
11:01 AM,46.4,44.6,93,30.20,10.0,SW,10.4,-,N/A,Rain,Light Rain,220,2013-02-16 19:01:00
11:06 AM,46.4,44.6,93,30.20,9.0,SSW,8.1,-,N/A,Rain,Light Rain,210,2013-02-16 19:06:00
11:11 AM,46.4,44.6,93,30.20,6.0,WSW,6.9,-,N/A,Rain,Light Rain,240,2013-02-16 19:11:00
11:21 AM,46.4,44.6,93,30.20,3.0,West,5.8,-,N/A,Rain,Light Rain,260,2013-02-16 19:21:00
11:31 AM,46.4,46.4,100,30.20,7.0,SW,6.9,-,N/A,,Light Drizzle,230,2013-02-16 19:31:00
11:33 AM,46.4,46.4,100,30.20,9.0,SW,8.1,-,N/A,,Overcast,220,2013-02-16 19:33:00
11:38 AM,46.4,46.4,100,30.20,10.0,WSW,9.2,-,N/A,,Overcast,240,2013-02-16 19:38:00
11:58 AM,47.7,45.1,91,30.21,10.0,SW,10.4,-,0.03,,Overcast,220,2013-02-16 19:58:00
12:53 PM,50.0,41.0,71,30.18,10.0,SW,9.2,-,N/A,,Mostly Cloudy,230,2013-02-16 20:53:00
12:58 PM,48.9,41.0,74,30.20,10.0,WSW,9.2,-,N/A,,Mostly Cloudy,240,2013-02-16 20:58:00
1:23 PM,50.0,41.0,71,30.16,10.0,West,12.7,21.9,N/A,,Mostly Cloudy,270,2013-02-16 21:23:00
1:58 PM,49.5,39.2,68,30.18,10.0,WSW,15.0,26.5,N/A,,Partly Cloudy,240,2013-02-16 21:58:00
2:29 PM,50.0,39.2,66,30.16,10.0,West,18.4,29.9,N/A,,Partly Cloudy,270,2013-02-16 22:29:00
2:58 PM,49.1,40.5,72,30.18,10.0,West,12.7,18.4,N/A,,Scattered Clouds,260,2013-02-16 22:58:00
3:16 PM,48.2,41.0,76,30.17,10.0,West,12.7,19.6,N/A,Rain,Light Rain,260,2013-02-16 23:16:00
3:26 PM,48.2,41.0,76,30.16,10.0,WSW,15.0,19.6,N/A,,Scattered Clouds,250,2013-02-16 23:26:00
3:58 PM,48.2,40.3,74,30.18,10.0,WSW,13.8,27.6,0.00,,Clear,240,2013-02-16 23:58:00
4:58 PM,47.3,37.6,69,30.17,10.0,WSW,16.1,25.3,N/A,,Partly Cloudy,240,2013-02-17 00:58:00
5:58 PM,44.8,37.0,74,30.18,10.0,SW,12.7,23.0,N/A,,Overcast,220,2013-02-17 01:58:00
6:58 PM,43.2,37.9,82,30.18,10.0,SW,12.7,23.0,N/A,,Mostly Cloudy,220,2013-02-17 02:58:00
7:58 PM,42.6,37.6,82,30.20,10.0,SW,16.1,19.6,N/A,,Mostly Cloudy,220,2013-02-17 03:58:00
8:28 PM,42.8,37.4,81,30.18,10.0,SSW,8.1,19.6,N/A,,Overcast,200,2013-02-17 04:28:00
8:58 PM,41.5,36.3,82,30.21,10.0,SSW,9.2,-,N/A,,Mostly Cloudy,200,2013-02-17 04:58:00
9:03 PM,41.0,35.6,81,30.19,10.0,SSW,9.2,-,N/A,,Overcast,210,2013-02-17 05:03:00
9:08 PM,41.0,35.6,81,30.19,10.0,SSW,8.1,-,N/A,,Mostly Cloudy,210,2013-02-17 05:08:00
9:58 PM,39.9,35.2,83,30.22,10.0,SSW,6.9,-,N/A,,Scattered Clouds,200,2013-02-17 05:58:00
10:58 PM,36.1,34.0,92,30.23,10.0,South,8.1,-,N/A,,Partly Cloudy,180,2013-02-17 06:58:00
11:58 PM,36.0,34.7,95,30.24,10.0,South,6.9,-,N/A,,Partly Cloudy,170,2013-02-17 07:58:00